| time (UTC) | temp F | wind direction | speed knots | gust knots | rain 1hr in | rain 24hr in | rain mn in | humidity % | barometer mb |
| 20260508023153 | 49 | 314 | 0.0 | 1.7 | 0.00 | 0.00 | 0.00 | 58 | 1009.9 |
| 20260508022648 | 49 | 314 | 0.0 | 0.9 | 0.00 | 0.00 | 0.00 | 56 | 1009.8 |
| 20260508022145 | 49 | 314 | 0.0 | 1.7 | 0.00 | 0.00 | 0.00 | 55 | 1009.8 |
| 20260508021630 | 50 | 314 | 0.0 | 1.7 | 0.00 | 0.00 | 0.00 | 55 | 1009.8 |
| 20260508021130 | 50 | 314 | 0.0 | 0.9 | 0.00 | 0.00 | 0.00 | 54 | 1009.8 |
| 20260508020621 | 50 | 314 | 0.0 | 0.9 | 0.00 | 0.00 | 0.00 | 53 | 1009.8 |
| 20260508020112 | 50 | 314 | 0.0 | 0.0 | 0.00 | 0.00 | 0.00 | 53 | 1009.9 |
| 20260508015609 | 51 | 314 | 0.0 | 0.0 | 0.00 | 0.00 | 0.00 | 52 | 1009.6 |
| 20260508015052 | 51 | 314 | 0.0 | 0.9 | 0.00 | 0.00 | 0.00 | 52 | 1009.6 |
| 20260508014547 | 51 | 314 | 0.0 | 0.9 | 0.00 | 0.00 | 0.00 | 50 | 1009.6 |
| 20260508014032 | 52 | 314 | 0.0 | 1.7 | 0.00 | 0.00 | 0.00 | 49 | 1009.6 |
| 20260508013512 | 52 | 314 | 0.0 | 3.5 | 0.00 | 0.00 | 0.00 | 49 | 1009.6 |
| 20260508013013 | 52 | 314 | 0.0 | 3.5 | 0.00 | 0.00 | 0.00 | 49 | 1009.6 |
| 20260508012511 | 53 | 314 | 0.9 | 2.6 | 0.00 | 0.00 | 0.00 | 48 | 1009.4 |
| 20260508011503 | 53 | 314 | 0.9 | 3.5 | 0.00 | 0.00 | 0.00 | 48 | 1009.4 |
| 20260508010946 | 53 | 314 | 1.7 | 6.1 | 0.00 | 0.00 | 0.00 | 47 | 1009.4 |
| 20260508005917 | 53 | 314 | 3.5 | 11.3 | 0.00 | 0.00 | 0.00 | 46 | 1009.1 |
| 20260508004911 | 54 | 316 | 3.5 | 11.3 | 0.00 | 0.00 | 0.00 | 47 | 1009.1 |
| 20260508004412 | 54 | 314 | 3.5 | 9.6 | 0.00 | 0.00 | 0.00 | 46 | 1008.9 |
| 20260508003910 | 54 | 314 | 3.5 | 9.6 | 0.00 | 0.00 | 0.00 | 46 | 1008.9 |
| 20260508003410 | 55 | 314 | 4.3 | 12.2 | 0.00 | 0.00 | 0.00 | 45 | 1008.9 |
| 20260508002910 | 55 | 314 | 4.3 | 12.2 | 0.00 | 0.00 | 0.00 | 45 | 1008.6 |
| 20260508002359 | 55 | 313 | 4.3 | 10.4 | 0.00 | 0.00 | 0.00 | 44 | 1008.6 |
| 20260508001842 | 55 | 313 | 4.3 | 12.2 | 0.00 | 0.00 | 0.00 | 44 | 1008.7 |
| 20260508001326 | 56 | 312 | 4.3 | 12.2 | 0.00 | 0.00 | 0.00 | 43 | 1008.6 |
| 20260508000814 | 56 | 312 | 5.2 | 12.2 | 0.00 | 0.00 | 0.00 | 43 | 1008.6 |
| 20260508000309 | 56 | 306 | 4.3 | 11.3 | 0.00 | 0.00 | 0.00 | 42 | 1008.6 |
| 20260507235810 | 57 | 289 | 3.5 | 11.3 | 0.00 | 0.00 | 0.00 | 41 | 1008.4 |
| 20260507235309 | 57 | 272 | 5.2 | 13.0 | 0.00 | 0.00 | 0.00 | 40 | 1008.4 |
| 20260507234808 | 57 | 271 | 6.1 | 13.0 | 0.00 | 0.00 | 0.00 | 39 | 1008.4 |
| 20260507234311 | 57 | 315 | 6.1 | 11.3 | 0.00 | 0.00 | 0.00 | 40 | 1008.4 |
| 20260507233809 | 58 | 279 | 4.3 | 10.4 | 0.00 | 0.00 | 0.00 | 40 | 1008.4 |
| 20260507233312 | 58 | 275 | 4.3 | 10.4 | 0.00 | 0.00 | 0.00 | 39 | 1008.5 |
| 20260507232811 | 58 | 281 | 4.3 | 12.2 | 0.00 | 0.00 | 0.00 | 38 | 1008.3 |
| 20260507232306 | 58 | 266 | 5.2 | 12.2 | 0.00 | 0.00 | 0.00 | 39 | 1008.3 |
| 20260507231756 | 58 | 272 | 4.3 | 10.4 | 0.00 | 0.00 | 0.00 | 39 | 1008.3 |
| 20260507231250 | 58 | 282 | 3.5 | 9.6 | 0.00 | 0.00 | 0.00 | 39 | 1008.1 |
| 20260507230750 | 58 | 302 | 3.5 | 9.6 | 0.00 | 0.00 | 0.00 | 39 | 1008.1 |
| 20260507230250 | 58 | 308 | 3.5 | 8.7 | 0.00 | 0.00 | 0.00 | 38 | 1008.1 |
| 20260507225748 | 59 | 316 | 5.2 | 13.0 | 0.00 | 0.00 | 0.00 | 38 | 1008.1 |
| 20260507225246 | 59 | 316 | 6.1 | 19.1 | 0.00 | 0.00 | 0.00 | 36 | 1008.1 |
| 20260507224244 | 59 | 319 | 5.2 | 14.8 | 0.00 | 0.00 | 0.00 | 37 | 1008.0 |
| 20260507223738 | 59 | 234 | 4.3 | 11.3 | 0.00 | 0.00 | 0.00 | 35 | 1008.0 |
| 20260507222736 | 60 | 278 | 5.2 | 12.2 | 0.00 | 0.00 | 0.00 | 37 | 1007.9 |
| 20260507222236 | 60 | 252 | 6.1 | 14.8 | 0.00 | 0.00 | 0.00 | 36 | 1007.9 |
| 20260507221736 | 60 | 326 | 5.2 | 14.8 | 0.00 | 0.00 | 0.00 | 37 | 1007.9 |
| 20260507221234 | 60 | 251 | 3.5 | 9.6 | 0.00 | 0.00 | 0.00 | 35 | 1007.6 |
| 20260507220734 | 60 | 274 | 3.5 | 8.7 | 0.00 | 0.00 | 0.00 | 38 | 1007.6 |
| 20260507220229 | 60 | 273 | 4.3 | 13.0 | 0.00 | 0.00 | 0.00 | 34 | 1007.6 |
| 20260507215723 | 60 | 276 | 5.2 | 15.6 | 0.00 | 0.00 | 0.00 | 36 | 1007.7 |
| 20260507215217 | 61 | 233 | 4.3 | 15.6 | 0.00 | 0.00 | 0.00 | 32 | 1007.7 |
| 20260507214712 | 61 | 325 | 4.3 | 12.2 | 0.00 | 0.00 | 0.00 | 33 | 1007.7 |
| 20260507214201 | 62 | 261 | 4.3 | 9.6 | 0.00 | 0.00 | 0.00 | 31 | 1007.5 |
| 20260507213648 | 62 | 254 | 3.5 | 9.6 | 0.00 | 0.00 | 0.00 | 33 | 1007.6 |
| 20260507212635 | 61 | 319 | 5.2 | 15.6 | 0.00 | 0.00 | 0.00 | 36 | 1007.6 |
| 20260507212130 | 60 | 223 | 4.3 | 11.3 | 0.00 | 0.00 | 0.00 | 36 | 1007.6 |
| 20260507211623 | 60 | 217 | 7.0 | 18.2 | 0.00 | 0.00 | 0.00 | 37 | 1007.6 |
| 20260507211118 | 60 | 320 | 7.0 | 18.2 | 0.00 | 0.00 | 0.00 | 34 | 1007.2 |
| 20260507210612 | 60 | 267 | 5.2 | 13.9 | 0.00 | 0.00 | 0.00 | 34 | 1007.2 |
| 20260507205600 | 60 | 241 | 4.3 | 10.4 | 0.00 | 0.00 | 0.00 | 34 | 1007.1 |
| 20260507205054 | 60 | 263 | 5.2 | 11.3 | 0.00 | 0.00 | 0.00 | 34 | 1007.1 |
| 20260507204547 | 60 | 238 | 5.2 | 11.3 | 0.00 | 0.00 | 0.00 | 35 | 1007.1 |
| 20260507204041 | 60 | 258 | 4.3 | 9.6 | 0.00 | 0.00 | 0.00 | 33 | 1007.1 |
| 20260507202522 | 60 | 321 | 6.1 | 13.9 | 0.00 | 0.00 | 0.00 | 37 | 1007.5 |
| 20260507202017 | 61 | 319 | 6.1 | 13.9 | 0.00 | 0.00 | 0.00 | 34 | 1007.5 |
| 20260507201004 | 62 | 329 | 7.0 | 16.5 | 0.00 | 0.00 | 0.00 | 35 | 1007.5 |
| 20260507200501 | 61 | 224 | 7.0 | 15.6 | 0.00 | 0.00 | 0.00 | 34 | 1007.4 |
| 20260507195952 | 61 | 239 | 7.0 | 15.6 | 0.00 | 0.00 | 0.00 | 35 | 1007.5 |
| 20260507195446 | 60 | 298 | 7.8 | 15.6 | 0.00 | 0.00 | 0.00 | 38 | 1007.5 |
| 20260507194941 | 60 | 320 | 6.1 | 14.8 | 0.00 | 0.00 | 0.00 | 39 | 1007.4 |
| 20260507194430 | 60 | 328 | 3.5 | 13.9 | 0.00 | 0.00 | 0.00 | 41 | 1007.8 |
| 20260507193921 | 60 | 241 | 3.5 | 11.3 | 0.00 | 0.00 | 0.00 | 39 | 1007.8 |
| 20260507193414 | 60 | 226 | 5.2 | 11.3 | 0.00 | 0.00 | 0.00 | 41 | 1007.8 |
| 20260507192908 | 60 | 245 | 5.2 | 13.0 | 0.00 | 0.00 | 0.00 | 37 | 1007.6 |
| 20260507191855 | 61 | 250 | 3.5 | 12.2 | 0.00 | 0.00 | 0.00 | 40 | 1007.6 |
| 20260507191349 | 61 | 283 | 5.2 | 12.2 | 0.00 | 0.00 | 0.00 | 42 | 1007.6 |
| 20260507190843 | 61 | 258 | 6.1 | 21.7 | 0.00 | 0.00 | 0.00 | 37 | 1007.6 |
| 20260507190336 | 60 | 319 | 7.0 | 21.7 | 0.00 | 0.00 | 0.00 | 43 | 1007.6 |
| 20260507185832 | 60 | 320 | 5.2 | 16.5 | 0.00 | 0.00 | 0.00 | 41 | 1007.8 |
| 20260507185321 | 60 | 208 | 5.2 | 12.2 | 0.00 | 0.00 | 0.00 | 41 | 1007.8 |
| 20260507184816 | 60 | 194 | 6.1 | 13.0 | 0.00 | 0.00 | 0.00 | 39 | 1007.8 |
| 20260507184309 | 60 | 260 | 5.2 | 13.0 | 0.00 | 0.00 | 0.00 | 44 | 1007.9 |
| 20260507183804 | 60 | 257 | 6.1 | 12.2 | 0.00 | 0.00 | 0.00 | 37 | 1007.9 |
| 20260507183258 | 61 | 295 | 6.1 | 14.8 | 0.00 | 0.00 | 0.00 | 38 | 1007.9 |
| 20260507182248 | 61 | 238 | 3.5 | 7.8 | 0.00 | 0.00 | 0.00 | 42 | 1007.9 |
| 20260507181729 | 60 | 237 | 4.3 | 9.6 | 0.00 | 0.00 | 0.00 | 44 | 1007.9 |
| 20260507181224 | 60 | 237 | 6.1 | 13.0 | 0.00 | 0.00 | 0.00 | 43 | 1007.8 |
| 20260507180719 | 60 | 223 | 6.1 | 13.9 | 0.00 | 0.00 | 0.00 | 40 | 1007.8 |
| 20260507180218 | 60 | 266 | 5.2 | 13.9 | 0.00 | 0.00 | 0.00 | 49 | 1007.8 |
| 20260507175719 | 60 | 245 | 4.3 | 9.6 | 0.00 | 0.00 | 0.00 | 48 | 1008.1 |
| 20260507174717 | 59 | 218 | 5.2 | 11.3 | 0.00 | 0.00 | 0.00 | 42 | 1008.1 |
| 20260507174219 | 60 | 219 | 6.1 | 11.3 | 0.00 | 0.00 | 0.00 | 43 | 1008.2 |
| 20260507173710 | 60 | 224 | 6.1 | 9.6 | 0.00 | 0.00 | 0.00 | 45 | 1008.2 |
| 20260507172712 | 60 | 228 | 6.1 | 12.2 | 0.00 | 0.00 | 0.00 | 47 | 1008.4 |
| 20260507172200 | 60 | 216 | 7.0 | 14.8 | 0.00 | 0.00 | 0.00 | 46 | 1008.4 |
| 20260507171648 | 60 | 211 | 6.1 | 14.8 | 0.00 | 0.00 | 0.00 | 44 | 1008.4 |
| 20260507170625 | 60 | 236 | 6.1 | 17.4 | 0.00 | 0.00 | 0.00 | 42 | 1008.6 |
| 20260507170106 | 60 | 224 | 4.3 | 17.4 | 0.00 | 0.00 | 0.00 | 46 | 1008.6 |
| 20260507165559 | 60 | 232 | 6.1 | 10.4 | 0.00 | 0.00 | 0.00 | 47 | 1008.6 |
| 20260507165049 | 60 | 221 | 6.1 | 10.4 | 0.00 | 0.00 | 0.00 | 44 | 1008.6 |
| 20260507164537 | 60 | 222 | 5.2 | 8.7 | 0.00 | 0.00 | 0.00 | 45 | 1008.6 |
| 20260507164024 | 60 | 223 | 5.2 | 12.2 | 0.00 | 0.00 | 0.00 | 43 | 1008.8 |
| 20260507163001 | 58 | 215 | 5.2 | 13.9 | 0.00 | 0.00 | 0.00 | 48 | 1008.8 |
| 20260507162449 | 58 | 217 | 5.2 | 13.9 | 0.00 | 0.00 | 0.00 | 45 | 1008.8 |
| 20260507161937 | 58 | 241 | 4.3 | 10.4 | 0.00 | 0.00 | 0.00 | 45 | 1008.8 |
| 20260507161431 | 58 | 235 | 5.2 | 10.4 | 0.00 | 0.00 | 0.00 | 45 | 1008.8 |
| 20260507160925 | 58 | 245 | 5.2 | 9.6 | 0.00 | 0.00 | 0.00 | 43 | 1008.8 |
| 20260507160415 | 58 | 242 | 5.2 | 13.0 | 0.00 | 0.00 | 0.00 | 43 | 1008.9 |
| 20260507155909 | 58 | 259 | 5.2 | 13.9 | 0.00 | 0.00 | 0.00 | 46 | 1009.1 |
| 20260507155402 | 58 | 257 | 4.3 | 10.4 | 0.00 | 0.00 | 0.00 | 46 | 1009.1 |
| 20260507154852 | 57 | 246 | 3.5 | 9.6 | 0.00 | 0.00 | 0.00 | 45 | 1009.1 |
| 20260507154342 | 57 | 244 | 2.6 | 9.6 | 0.00 | 0.00 | 0.00 | 48 | 1009.3 |
| 20260507153843 | 57 | 232 | 4.3 | 12.2 | 0.00 | 0.00 | 0.00 | 50 | 1009.3 |
| 20260507153335 | 56 | 232 | 5.2 | 12.2 | 0.00 | 0.00 | 0.00 | 46 | 1009.1 |
| 20260507152828 | 56 | 231 | 3.5 | 11.3 | 0.00 | 0.00 | 0.00 | 49 | 1009.1 |
| 20260507151819 | 56 | 238 | 2.6 | 8.7 | 0.00 | 0.00 | 0.00 | 48 | 1009.1 |
| 20260507151306 | 56 | 239 | 3.5 | 8.7 | 0.00 | 0.00 | 0.00 | 47 | 1009.6 |
| 20260507150757 | 56 | 297 | 3.5 | 7.8 | 0.00 | 0.00 | 0.00 | 51 | 1009.6 |
| 20260507150253 | 56 | 298 | 3.5 | 7.8 | 0.00 | 0.00 | 0.00 | 49 | 1009.6 |
| 20260507145741 | 56 | 311 | 3.5 | 7.8 | 0.00 | 0.00 | 0.00 | 48 | 1009.7 |
| 20260507145235 | 56 | 314 | 4.3 | 14.8 | 0.00 | 0.00 | 0.00 | 47 | 1009.7 |
| 20260507144725 | 56 | 321 | 4.3 | 14.8 | 0.00 | 0.00 | 0.00 | 50 | 1009.7 |
| 20260507144211 | 55 | 260 | 3.5 | 10.4 | 0.00 | 0.00 | 0.00 | 50 | 1009.6 |
| 20260507143705 | 55 | 250 | 3.5 | 10.4 | 0.00 | 0.00 | 0.00 | 53 | 1009.6 |
| 20260507143204 | 55 | 264 | 3.5 | 7.8 | 0.00 | 0.01 | 0.00 | 49 | 1009.6 |
| 20260507142659 | 55 | 264 | 2.6 | 7.8 | 0.00 | 0.01 | 0.00 | 52 | 1010.0 |
| 20260507142158 | 55 | 264 | 2.6 | 7.8 | 0.00 | 0.01 | 0.00 | 53 | 1010.0 |
| 20260507141648 | 54 | 268 | 3.5 | 9.6 | 0.00 | 0.01 | 0.00 | 56 | 1009.9 |
| 20260507141146 | 54 | 268 | 4.3 | 9.6 | 0.00 | 0.01 | 0.00 | 57 | 1010.2 |
| 20260507140647 | 54 | 295 | 3.5 | 7.8 | 0.00 | 0.01 | 0.00 | 60 | 1010.2 |
| 20260507140142 | 53 | 295 | 2.6 | 7.8 | 0.00 | 0.01 | 0.00 | 59 | 1010.2 |
| 20260507135640 | 53 | 300 | 3.5 | 7.8 | 0.00 | 0.01 | 0.00 | 60 | 1010.2 |
| 20260507135143 | 53 | 300 | 3.5 | 7.8 | 0.00 | 0.01 | 0.00 | 61 | 1010.2 |
| 20260507134632 | 52 | 300 | 2.6 | 7.8 | 0.00 | 0.01 | 0.00 | 64 | 1010.2 |
| 20260507134130 | 52 | 303 | 2.6 | 7.0 | 0.00 | 0.01 | 0.00 | 65 | 1010.3 |
| 20260507133621 | 51 | 305 | 3.5 | 6.1 | 0.00 | 0.01 | 0.00 | 65 | 1010.2 |
| 20260507132616 | 50 | 309 | 2.6 | 6.1 | 0.00 | 0.02 | 0.00 | 71 | 1010.4 |
| 20260507132117 | 49 | 309 | 2.6 | 6.1 | 0.00 | 0.02 | 0.00 | 73 | 1010.4 |
| 20260507131615 | 49 | 312 | 2.6 | 6.1 | 0.00 | 0.03 | 0.00 | 75 | 1010.3 |
| 20260507131115 | 48 | 313 | 2.6 | 5.2 | 0.00 | 0.03 | 0.00 | 76 | 1010.2 |
| 20260507130617 | 47 | 313 | 2.6 | 5.2 | 0.00 | 0.03 | 0.00 | 81 | 1010.1 |
| 20260507130112 | 46 | 313 | 1.7 | 5.2 | 0.00 | 0.03 | 0.00 | 85 | 1010.1 |
| 20260507125611 | 46 | 313 | 1.7 | 4.3 | 0.00 | 0.03 | 0.00 | 89 | 1010.2 |
| 20260507125104 | 45 | 313 | 1.7 | 4.3 | 0.00 | 0.03 | 0.00 | 92 | 1010.2 |
| 20260507124559 | 44 | 314 | 1.7 | 4.3 | 0.00 | 0.03 | 0.00 | 94 | 1010.1 |
| 20260507124053 | 44 | 313 | 1.7 | 4.3 | 0.00 | 0.03 | 0.00 | 96 | 1010.2 |
| 20260507123547 | 43 | 314 | 0.9 | 3.5 | 0.00 | 0.03 | 0.00 | 96 | 1010.1 |
| 20260507123037 | 43 | 314 | 0.9 | 3.5 | 0.00 | 0.03 | 0.00 | 96 | 1010.1 |
| 20260507122020 | 42 | 314 | 0.0 | 0.0 | 0.00 | 0.03 | 0.00 | 96 | 1010.1 |
| 20260507121519 | 41 | 313 | 0.0 | 0.0 | 0.00 | 0.04 | 0.00 | 96 | 1010.0 |
| 20260507120506 | 40 | 314 | 0.0 | 0.0 | 0.00 | 0.04 | 0.00 | 95 | 1010.0 |
| 20260507115956 | 39 | 313 | 0.0 | 0.0 | 0.00 | 0.05 | 0.00 | 94 | 1010.0 |
| 20260507114941 | 38 | 314 | 0.0 | 0.0 | 0.00 | 0.07 | 0.00 | 94 | 1009.9 |
| 20260507113932 | 38 | 313 | 0.0 | 0.0 | 0.00 | 0.08 | 0.00 | 93 | 1009.8 |
| 20260507113430 | 37 | 314 | 0.0 | 0.0 | 0.00 | 0.08 | 0.00 | 92 | 1009.8 |
| 20260507112926 | 37 | 313 | 0.0 | 0.0 | 0.00 | 0.08 | 0.00 | 92 | 1009.5 |
| 20260507111927 | 37 | 314 | 0.0 | 0.0 | 0.00 | 0.08 | 0.00 | 92 | 1009.5 |
| 20260507111426 | 37 | 314 | 0.0 | 0.0 | 0.00 | 0.08 | 0.00 | 91 | 1009.3 |
| 20260507110415 | 37 | 314 | 0.0 | 0.0 | 0.00 | 0.09 | 0.00 | 91 | 1009.3 |
| 20260507105909 | 37 | 313 | 0.0 | 0.0 | 0.00 | 0.09 | 0.00 | 91 | 1009.3 |
| 20260507105405 | 37 | 313 | 0.0 | 0.0 | 0.00 | 0.09 | 0.00 | 91 | 1009.3 |
| 20260507104852 | 37 | 314 | 0.0 | 0.0 | 0.00 | 0.09 | 0.00 | 91 | 1009.4 |
| 20260507103340 | 37 | 314 | 0.0 | 0.0 | 0.00 | 0.11 | 0.00 | 90 | 1009.3 |
| 20260507102832 | 37 | 314 | 0.0 | 0.0 | 0.00 | 0.12 | 0.00 | 90 | 1009.0 |
| 20260507102332 | 37 | 313 | 0.0 | 0.0 | 0.00 | 0.13 | 0.00 | 90 | 1009.0 |
| 20260507101833 | 37 | 314 | 0.0 | 0.0 | 0.00 | 0.13 | 0.00 | 90 | 1009.0 |
| 20260507101317 | 38 | 314 | 0.0 | 0.0 | 0.00 | 0.14 | 0.00 | 90 | 1008.9 |
| 20260507100807 | 38 | 314 | 0.0 | 0.0 | 0.00 | 0.15 | 0.00 | 89 | 1008.9 |
| 20260507100256 | 38 | 314 | 0.0 | 0.0 | 0.00 | 0.17 | 0.00 | 89 | 1008.9 |
| 20260507095751 | 38 | 313 | 0.0 | 0.0 | 0.00 | 0.19 | 0.00 | 89 | 1009.0 |
| 20260507095246 | 38 | 314 | 0.0 | 0.0 | 0.00 | 0.20 | 0.00 | 89 | 1009.0 |
| 20260507093738 | 39 | 314 | 0.0 | 0.0 | 0.00 | 0.25 | 0.00 | 89 | 1008.9 |
| 20260507093221 | 39 | 314 | 0.0 | 0.0 | 0.00 | 0.25 | 0.00 | 89 | 1008.9 |
| 20260507092716 | 39 | 314 | 0.0 | 0.0 | 0.00 | 0.25 | 0.00 | 89 | 1009.0 |
| 20260507092212 | 39 | 314 | 0.0 | 0.0 | 0.00 | 0.25 | 0.00 | 88 | 1009.0 |
| 20260507091706 | 39 | 314 | 0.0 | 0.0 | 0.00 | 0.26 | 0.00 | 88 | 1009.1 |
| 20260507091146 | 40 | 313 | 0.0 | 0.0 | 0.00 | 0.27 | 0.00 | 88 | 1009.4 |
| 20260507090645 | 40 | 314 | 0.0 | 0.0 | 0.00 | 0.27 | 0.00 | 87 | 1009.4 |
| 20260507085622 | 40 | 314 | 0.0 | 0.0 | 0.00 | 0.30 | 0.00 | 87 | 1009.3 |
| 20260507085120 | 40 | 313 | 0.0 | 0.0 | 0.00 | 0.31 | 0.00 | 86 | 1009.3 |
| 20260507084613 | 41 | 314 | 0.0 | 0.0 | 0.00 | 0.33 | 0.00 | 86 | 1009.4 |
| 20260507084110 | 41 | 314 | 0.0 | 0.0 | 0.00 | 0.34 | 0.00 | 85 | 1009.4 |
| 20260507083602 | 41 | 313 | 0.0 | 0.0 | 0.00 | 0.35 | 0.00 | 84 | 1009.4 |
| 20260507082600 | 41 | 314 | 0.0 | 0.0 | 0.00 | 0.36 | 0.00 | 83 | 1009.4 |
| 20260507081552 | 42 | 314 | 0.0 | 0.0 | 0.00 | 0.37 | 0.00 | 83 | 1009.4 |
| 20260507081021 | 42 | 314 | 0.0 | 0.0 | 0.00 | 0.38 | 0.00 | 82 | 1009.4 |
| 20260507080518 | 42 | 314 | 0.0 | 0.0 | 0.00 | 0.40 | 0.00 | 81 | 1009.4 |
| 20260507075406 | 43 | 314 | 0.0 | 0.0 | 0.00 | 0.42 | 0.00 | 80 | 1009.4 |
| 20260507074855 | 43 | 313 | 0.0 | 0.0 | 0.00 | 0.42 | 0.00 | 80 | 1009.4 |
| 20260507074336 | 43 | 314 | 0.0 | 0.0 | 0.00 | 0.42 | 0.00 | 80 | 1009.5 |
| 20260507073835 | 44 | 314 | 0.0 | 0.0 | 0.00 | 0.42 | 0.00 | 79 | 1009.5 |
| 20260507073335 | 44 | 314 | 0.0 | 0.0 | 0.00 | 0.42 | 0.00 | 79 | 1009.5 |
| 20260507072834 | 44 | 314 | 0.0 | 0.0 | 0.00 | 0.42 | 0.00 | 78 | 1009.6 |
| 20260507072331 | 44 | 314 | 0.0 | 0.0 | 0.00 | 0.42 | 0.00 | 77 | 1009.6 |
| 20260507071812 | 45 | 314 | 0.0 | 0.0 | 0.00 | 0.42 | 0.00 | 77 | 1009.6 |
| 20260507071257 | 45 | 314 | 0.0 | 0.0 | 0.00 | 0.42 | 0.00 | 77 | 1009.5 |
| 20260507070749 | 45 | 314 | 0.0 | 0.0 | 0.00 | 0.42 | 0.00 | 77 | 1009.5 |
| 20260507070221 | 46 | 313 | 0.0 | 0.0 | 0.00 | 0.43 | 0.00 | 76 | 1009.5 |
| 20260507065201 | 46 | 314 | 0.0 | 0.0 | 0.00 | 0.43 | 0.00 | 76 | 1009.7 |
| 20260507064136 | 47 | 314 | 0.0 | 0.0 | 0.00 | 0.45 | 0.00 | 76 | 1009.7 |
| 20260507063634 | 47 | 314 | 0.0 | 0.0 | 0.00 | 0.45 | 0.00 | 76 | 1009.7 |
| 20260507063057 | 47 | 314 | 0.0 | 0.0 | 0.00 | 0.46 | 0.00 | 76 | 1009.8 |
| 20260507062522 | 47 | 314 | 0.0 | 0.0 | 0.00 | 0.46 | 0.00 | 75 | 1009.7 |
| 20260507062014 | 47 | 314 | 0.0 | 0.0 | 0.00 | 0.47 | 0.00 | 75 | 1009.7 |
| 20260507061509 | 48 | 314 | 0.0 | 0.0 | 0.00 | 0.47 | 0.00 | 74 | 1009.7 |
| 20260507061007 | 48 | 314 | 0.0 | 0.0 | 0.00 | 0.47 | 0.00 | 75 | 1009.9 |
| 20260507060449 | 48 | 314 | 0.0 | 0.0 | 0.00 | 0.48 | 0.00 | 75 | 1009.9 |
| 20260507055943 | 48 | 314 | 0.0 | 0.0 | 0.00 | 0.48 | 0.00 | 75 | 1010.1 |
| 20260507055406 | 48 | 314 | 0.0 | 0.0 | 0.00 | 0.49 | 0.00 | 75 | 1010.1 |
| 20260507054824 | 48 | 314 | 0.0 | 0.0 | 0.00 | 0.49 | 0.00 | 75 | 1010.1 |
| 20260507054321 | 48 | 314 | 0.0 | 0.0 | 0.00 | 0.49 | 0.00 | 75 | 1010.3 |
| 20260507053824 | 48 | 314 | 0.0 | 0.0 | 0.00 | 0.49 | 0.00 | 76 | 1010.3 |
| 20260507052734 | 48 | 314 | 0.0 | 2.6 | 0.00 | 0.49 | 0.00 | 76 | 1010.3 |
| 20260507052239 | 49 | 314 | 0.0 | 2.6 | 0.00 | 0.49 | 0.00 | 76 | 1010.3 |
| 20260507051717 | 49 | 314 | 0.0 | 0.9 | 0.00 | 0.50 | 0.00 | 76 | 1010.3 |
| 20260507051214 | 49 | 314 | 0.0 | 0.0 | 0.00 | 0.50 | 0.00 | 76 | 1010.3 |
| 20260507050155 | 49 | 314 | 0.0 | 0.0 | 0.00 | 0.51 | 0.00 | 76 | 1010.3 |
| 20260507045628 | 49 | 314 | 0.0 | 0.0 | 0.00 | 0.51 | 0.00 | 76 | 1010.5 |
| 20260507045126 | 49 | 314 | 0.0 | 0.0 | 0.00 | 0.51 | 0.00 | 76 | 1010.5 |
| 20260507044623 | 49 | 314 | 0.0 | 0.0 | 0.00 | 0.51 | 0.00 | 76 | 1010.5 |
| 20260507044111 | 49 | 314 | 0.0 | 0.0 | 0.00 | 0.51 | 0.00 | 76 | 1010.4 |
| 20260507043553 | 49 | 314 | 0.0 | 0.0 | 0.00 | 0.51 | 0.00 | 76 | 1010.4 |
| 20260507043039 | 49 | 314 | 0.0 | 0.0 | 0.00 | 0.52 | 0.00 | 76 | 1010.4 |
| 20260507042533 | 49 | 314 | 0.0 | 0.0 | 0.00 | 0.52 | 0.00 | 76 | 1010.3 |
| 20260507040443 | 50 | 314 | 0.0 | 0.0 | 0.00 | 0.52 | 0.00 | 75 | 1010.3 |
| 20260507035910 | 50 | 314 | 0.0 | 0.0 | 0.00 | 0.52 | 0.52 | 75 | 1010.1 |
| 20260507034855 | 50 | 314 | 0.0 | 0.0 | 0.00 | 0.52 | 0.52 | 74 | 1010.1 |
| 20260507033837 | 50 | 314 | 0.0 | 0.0 | 0.00 | 0.52 | 0.52 | 74 | 1010.3 |
| 20260507033329 | 50 | 314 | 0.0 | 0.0 | 0.00 | 0.52 | 0.52 | 74 | 1010.4 |
| 20260507032807 | 50 | 314 | 0.0 | 0.0 | 0.00 | 0.52 | 0.52 | 74 | 1010.0 |
| 20260507031232 | 51 | 314 | 0.0 | 0.0 | 0.00 | 0.52 | 0.52 | 73 | 1009.7 |
| 20260507030716 | 51 | 314 | 0.0 | 0.0 | 0.00 | 0.52 | 0.52 | 72 | 1009.7 |
| 20260507030214 | 51 | 314 | 0.0 | 0.0 | 0.00 | 0.52 | 0.52 | 71 | 1009.7 |
| 20260507025709 | 51 | 314 | 0.0 | 0.0 | 0.00 | 0.52 | 0.52 | 71 | 1009.8 |
| 20260507025155 | 51 | 314 | 0.0 | 1.7 | 0.00 | 0.52 | 0.52 | 70 | 1009.8 |
| 20260507024643 | 51 | 314 | 0.0 | 1.7 | 0.00 | 0.52 | 0.52 | 69 | 1009.8 |
| 20260507024134 | 51 | 314 | 0.0 | 0.0 | 0.00 | 0.52 | 0.52 | 68 | 1009.8 |